| time (UTC) | temp C | wind direction | speed KPH | gust KPH | rain 1hr cm | rain 24hr cm | rain mn cm | humidity % | barometer mb |
| 20260502151404 | 26 | 59 | 8.0 | 14.5 | 0.00 | 0.00 | 0.00 | 25 | 1013.4 |
| 20260502130406 | 17 | 39 | 1.6 | 3.2 | 0.00 | 0.00 | 0.00 | 37 | 1012.0 |
| 20260502071404 | 22 | 232 | 1.6 | 4.8 | 0.00 | 0.00 | 0.00 | 22 | 1009.7 |
| 20260502070404 | 22 | 228 | 1.6 | 4.8 | 0.00 | 0.00 | 0.00 | 26 | 1009.6 |
| 20260502064404 | 22 | 228 | 1.6 | 4.8 | 0.00 | 0.00 | 0.00 | 25 | 1009.6 |
| 20260502063405 | 22 | 228 | 0.0 | 3.2 | 0.00 | 0.00 | 0.00 | 24 | 1009.6 |
| 20260502061406 | 23 | 228 | 0.0 | 4.8 | 0.00 | 0.00 | 0.00 | 24 | 1009.3 |
| 20260502060406 | 23 | 228 | 3.2 | 8.0 | 0.00 | 0.00 | 0.00 | 24 | 1009.2 |
| 20260502054404 | 24 | 230 | 3.2 | 4.8 | 0.00 | 0.00 | 0.00 | 24 | 1009.2 |
| 20260502053405 | 23 | 231 | 1.6 | 4.8 | 0.00 | 0.00 | 0.00 | 24 | 1009.2 |
| 20260502051404 | 24 | 231 | 0.0 | 3.2 | 0.00 | 0.00 | 0.00 | 24 | 1009.0 |
| 20260502050405 | 24 | 231 | 0.0 | 4.8 | 0.00 | 0.00 | 0.00 | 24 | 1009.1 |
| 20260502044405 | 25 | 231 | 1.6 | 3.2 | 0.00 | 0.00 | 0.00 | 23 | 1008.9 |
| 20260502041404 | 27 | 231 | 1.6 | 4.8 | 0.00 | 0.00 | 0.00 | 20 | 1008.6 |
| 20260502040404 | 27 | 231 | 3.2 | 8.0 | 0.00 | 0.00 | 0.00 | 20 | 1008.5 |
| 20260502034404 | 27 | 234 | 3.2 | 8.0 | 0.00 | 0.00 | 0.00 | 19 | 1008.3 |
| 20260502033405 | 28 | 234 | 3.2 | 8.0 | 0.00 | 0.00 | 0.00 | 19 | 1008.3 |
| 20260502030404 | 28 | 223 | 3.2 | 9.7 | 0.00 | 0.00 | 0.00 | 19 | 1007.9 |
| 20260502024405 | 29 | 221 | 4.8 | 11.3 | 0.00 | 0.00 | 0.00 | 19 | 1007.7 |
| 20260502023405 | 29 | 210 | 4.8 | 11.3 | 0.00 | 0.00 | 0.00 | 19 | 1007.5 |
| 20260502021405 | 30 | 209 | 4.8 | 11.3 | 0.00 | 0.00 | 0.00 | 18 | 1007.4 |
| 20260501223404 | 33 | 244 | 4.8 | 19.3 | 0.00 | 0.00 | 0.00 | 19 | 1008.1 |
| 20260501221404 | 33 | 200 | 4.8 | 19.3 | 0.00 | 0.00 | 0.00 | 20 | 1008.4 |
| 20260501220406 | 33 | 221 | 4.8 | 19.3 | 0.00 | 0.00 | 0.00 | 20 | 1008.5 |
| 20260501214406 | 32 | 257 | 8.0 | 19.3 | 0.00 | 0.00 | 0.00 | 20 | 1008.9 |
| 20260501213404 | 33 | 162 | 6.4 | 14.5 | 0.00 | 0.00 | 0.00 | 19 | 1009.0 |
| 20260501211404 | 32 | 225 | 6.4 | 16.1 | 0.00 | 0.00 | 0.00 | 18 | 1009.3 |
| 20260501210405 | 32 | 227 | 6.4 | 19.3 | 0.00 | 0.00 | 0.00 | 20 | 1009.6 |
| 20260501203405 | 31 | 288 | 3.2 | 19.3 | 0.00 | 0.00 | 0.00 | 21 | 1009.9 |
| 20260501201404 | 31 | 231 | 3.2 | 14.5 | 0.00 | 0.00 | 0.00 | 22 | 1010.1 |
| 20260501194404 | 31 | 257 | 4.8 | 12.9 | 0.00 | 0.00 | 0.00 | 24 | 1010.5 |
| 20260501193403 | 31 | 318 | 3.2 | 20.9 | 0.00 | 0.00 | 0.00 | 23 | 1010.6 |
| 20260501191405 | 30 | 278 | 6.4 | 14.5 | 0.00 | 0.00 | 0.00 | 23 | 1010.9 |
| 20260501190405 | 30 | 239 | 9.7 | 19.3 | 0.00 | 0.00 | 0.00 | 24 | 1011.1 |
| 20260501184405 | 30 | 184 | 4.8 | 9.7 | 0.00 | 0.00 | 0.00 | 25 | 1011.3 |
| 20260501183404 | 30 | 253 | 3.2 | 12.9 | 0.00 | 0.00 | 0.00 | 25 | 1011.4 |
| 20260501181405 | 29 | 169 | 6.4 | 14.5 | 0.00 | 0.00 | 0.00 | 26 | 1011.7 |
| 20260501180404 | 28 | 187 | 3.2 | 12.9 | 0.00 | 0.00 | 0.00 | 27 | 1011.9 |
| 20260501174405 | 28 | 167 | 3.2 | 9.7 | 0.00 | 0.00 | 0.00 | 28 | 1012.0 |
| 20260501171405 | 27 | 205 | 4.8 | 11.3 | 0.00 | 0.00 | 0.00 | 31 | 1012.2 |
| 20260501170404 | 27 | 177 | 3.2 | 11.3 | 0.00 | 0.00 | 0.00 | 30 | 1012.2 |
| 20260501164405 | 26 | 170 | 1.6 | 9.7 | 0.00 | 0.00 | 0.00 | 32 | 1012.1 |
| 20260501163404 | 26 | 155 | 3.2 | 12.9 | 0.00 | 0.00 | 0.00 | 33 | 1012.2 |
| 20260501160403 | 25 | 194 | 0.0 | 12.9 | 0.00 | 0.00 | 0.00 | 34 | 1012.1 |
| 20260501154403 | 24 | 208 | 4.8 | 14.5 | 0.00 | 0.00 | 0.00 | 35 | 1011.9 |
| 20260501153404 | 23 | 224 | 4.8 | 11.3 | 0.00 | 0.00 | 0.00 | 37 | 1011.9 |